Date String (YYYY-MM-DD hh:mm:ss) UTC,Instrument flags,absolute air pressure of the measurement (hPa),sample flow rate (lpm),inlet stack bypass flow (lpm),air temperature of the measurement (°C),ambient temperature measured by the external sensor (°C),aerosol sample conditioner tube jacket temperature (°C),OPC LED temperature (°C),internal box temperature (°C),relative humidity of the measurement (%),span deviation,mass concentration of particles derived from Lorenz-Mie calculation of OPC scattering (μg/m³),mass concentration of particles derived from Lorenz-Mie calculation of OPC scattering (μg/m³),mass concentration of particles derived from Lorenz-Mie calculation of OPC scattering (μg/m³)
DateTimeUTC,F1_M11,P_M11,Q1_M11,Q2_M11,T1_M11,T2_M11,T3_M11,T4_M11,T5_M11,U1_M11,ZSPAN_M11,X0_M11,X2_M11,X1_M11
2024-03-13 07:00:00,SystemResetWarning,0822.2,5.00,000.00,022.2,021.4,000.0,030.8,024.0,22.0,0000.0,0008.41,0003.66,0002.41
2024-03-13 07:01:00,SystemResetWarning,0822.2,5.00,000.00,022.2,021.4,000.0,030.8,024.0,21.9,0000.0,0008.24,0003.61,0002.39
2024-03-13 07:02:00,SystemResetWarning,0822.2,5.00,000.00,022.1,021.4,000.0,030.8,024.0,21.9,0000.0,0008.03,0003.56,0002.37
2024-03-13 07:03:00,SystemResetWarning,0822.1,5.01,000.00,022.2,021.4,000.0,030.8,024.0,21.9,0000.0,0008.02,0003.54,0002.35
2024-03-13 07:04:00,SystemResetWarning,0822.1,5.00,000.00,022.2,021.4,000.0,030.8,024.0,21.8,0000.0,0007.95,0003.54,0002.35
2024-03-13 07:05:00,SystemResetWarning,0822.1,4.99,000.00,022.1,021.4,000.0,030.8,024.0,21.6,0000.0,0007.92,0003.53,0002.36
2024-03-13 07:06:00,SystemResetWarning,0822.1,4.98,000.00,022.1,021.3,000.0,030.7,024.0,21.7,0000.0,0007.91,0003.54,0002.35
2024-03-13 07:07:00,SystemResetWarning,0822.1,5.00,000.00,022.1,021.3,000.0,030.7,024.0,21.7,0000.0,0007.52,0003.52,0002.34
2024-03-13 07:08:00,SystemResetWarning,0822.1,5.02,000.00,022.1,021.3,000.0,030.7,024.0,21.5,0000.0,0007.71,0003.55,0002.33
2024-03-13 07:09:00,SystemResetWarning,0822.1,4.99,000.00,022.1,021.3,000.0,030.7,024.0,21.4,0000.0,0007.82,0003.57,0002.33
2024-03-13 07:10:00,SystemResetWarning,0822.1,4.99,000.00,022.1,021.3,000.0,030.7,024.0,21.4,0000.0,0007.70,0003.53,0002.34
2024-03-13 07:11:00,SystemResetWarning,0822.0,5.01,000.00,022.1,021.3,000.0,030.7,024.0,21.5,0000.0,0008.01,0003.54,0002.36
2024-03-13 07:12:00,SystemResetWarning,0822.0,5.00,000.00,022.1,021.3,000.0,030.7,024.0,21.4,0000.0,0008.21,0003.53,0002.36
2024-03-13 07:13:00,SystemResetWarning,0822.1,5.00,000.00,022.1,021.3,000.0,030.7,024.0,21.5,0000.0,0008.33,0003.55,0002.37
2024-03-13 07:14:00,SystemResetWarning,0822.0,5.00,000.00,022.1,021.3,000.0,030.7,024.0,21.5,0000.0,0008.43,0003.59,0002.38
2024-03-13 07:15:00,SystemResetWarning,0822.0,4.99,000.00,022.1,021.3,000.0,030.7,023.9,21.3,0000.0,0008.84,0003.62,0002.39
2024-03-13 07:16:00,SystemResetWarning,0822.0,4.99,000.00,022.1,021.3,000.0,030.7,023.9,21.3,0000.0,0008.90,0003.61,0002.40
2024-03-13 07:17:00,SystemResetWarning,0822.0,5.00,000.00,022.1,021.3,000.0,030.7,023.9,21.3,0000.0,0008.90,0003.64,0002.41
2024-03-13 07:18:00,SystemResetWarning,0822.0,5.00,000.00,022.1,021.3,000.0,030.7,023.9,21.3,0000.0,0008.96,0003.64,0002.42
2024-03-13 07:19:00,SystemResetWarning,0821.9,5.00,000.00,022.1,021.3,000.0,030.7,023.9,21.3,0000.0,0009.13,0003.64,0002.44
2024-03-13 07:20:00,SystemResetWarning,0822.0,5.00,000.00,022.1,021.3,000.0,030.7,023.9,21.3,0000.0,0008.84,0003.56,0002.42
2024-03-13 07:21:00,SystemResetWarning,0822.0,5.00,000.00,022.1,021.3,000.0,030.7,023.9,21.3,0000.0,0008.95,0003.60,0002.42
2024-03-13 07:22:00,SystemResetWarning,0822.0,5.00,000.00,022.1,021.3,000.0,030.7,023.9,21.3,0000.0,0008.85,0003.59,0002.41
2024-03-13 07:23:00,SystemResetWarning,0822.0,4.99,000.00,022.1,021.3,000.0,030.6,023.9,21.3,0000.0,0009.10,0003.62,0002.43
2024-03-13 07:24:00,SystemResetWarning,0822.0,4.99,000.00,022.1,021.3,000.0,030.6,023.9,21.3,0000.0,0009.25,0003.66,0002.47
2024-03-13 07:25:00,SystemResetWarning,0821.9,5.01,000.00,022.1,021.3,000.0,030.6,023.9,21.4,0000.0,0009.14,0003.65,0002.49
2024-03-13 07:26:00,SystemResetWarning,0821.9,5.01,000.00,022.0,021.3,000.0,030.6,023.9,21.3,0000.0,0008.76,0003.63,0002.50
2024-03-13 07:27:00,SystemResetWarning,0822.0,5.01,000.00,022.0,021.3,000.0,030.6,023.9,21.4,0000.0,0008.64,0003.65,0002.52
2024-03-13 07:28:00,SystemResetWarning,0821.9,4.98,000.00,022.0,021.3,000.0,030.6,023.9,21.4,0000.0,0008.65,0003.68,0002.54
2024-03-13 07:29:00,SystemResetWarning,0822.0,4.99,000.00,022.0,021.2,000.0,030.6,023.9,21.4,0000.0,0008.64,0003.68,0002.55
2024-03-13 07:30:00,SystemResetWarning,0822.0,5.01,000.00,022.0,021.2,000.0,030.6,023.9,21.4,0000.0,0008.48,0003.69,0002.55
2024-03-13 07:31:00,SystemResetWarning,0822.0,5.01,000.00,022.0,021.2,000.0,030.6,023.9,21.4,0000.0,0008.62,0003.74,0002.57
2024-03-13 07:32:00,SystemResetWarning,0822.0,5.01,000.00,022.0,021.2,000.0,030.6,023.9,21.5,0000.0,0008.67,0003.75,0002.58
2024-03-13 07:33:00,SystemResetWarning,0822.0,5.00,000.00,022.0,021.2,000.0,030.6,023.9,21.5,0000.0,0009.24,0003.69,0002.58
2024-03-13 07:34:00,SystemResetWarning,0821.9,5.00,000.00,022.0,021.2,000.0,030.6,023.9,21.5,0000.0,0008.90,0003.69,0002.58
2024-03-13 07:35:00,SystemResetWarning,0822.0,5.00,000.00,022.0,021.2,000.0,030.6,023.8,21.5,0000.0,0008.95,0003.65,0002.57
2024-03-13 07:36:00,SystemResetWarning,0822.0,4.99,000.00,022.0,021.2,000.0,030.6,023.8,21.5,0000.0,0008.99,0003.66,0002.57
2024-03-13 07:37:00,SystemResetWarning,0822.0,5.00,000.00,022.0,021.2,000.0,030.6,023.8,21.4,0000.0,0009.12,0003.66,0002.57
2024-03-13 07:38:00,SystemResetWarning,0821.9,5.00,000.00,022.0,021.2,000.0,030.5,023.8,21.5,0000.0,0009.29,0003.70,0002.58
2024-03-13 07:39:00,SystemResetWarning,0822.0,5.00,000.00,022.0,021.2,000.0,030.5,023.8,21.5,0000.0,0009.27,0003.70,0002.56
2024-03-13 07:40:00,SystemResetWarning,0822.0,5.00,000.00,022.0,021.2,000.0,030.5,023.8,21.4,0000.0,0009.43,0003.72,0002.55
2024-03-13 07:41:00,SystemResetWarning,0822.0,5.00,000.00,021.9,021.1,000.0,030.5,023.8,21.5,0000.0,0009.23,0003.69,0002.55
2024-03-13 07:42:00,SystemResetWarning,0821.9,5.00,000.00,021.9,021.1,000.0,030.5,023.8,21.5,0000.0,0009.31,0003.69,0002.52
2024-03-13 07:43:00,SystemResetWarning,0821.9,5.01,000.00,021.9,021.1,000.0,030.5,023.8,21.4,0000.0,0009.22,0003.67,0002.52
2024-03-13 07:44:00,SystemResetWarning,0821.9,5.00,000.00,021.9,021.1,000.0,030.5,023.8,21.5,0000.0,0008.54,0003.70,0002.53
2024-03-13 07:45:00,SystemResetWarning,0821.8,4.99,000.00,021.9,021.1,000.0,030.5,023.8,21.6,0000.0,0008.51,0003.71,0002.52
2024-03-13 07:46:00,SystemResetWarning,0821.8,4.98,000.00,021.9,021.1,000.0,030.5,023.8,21.6,0000.0,0008.03,0003.70,0002.50
2024-03-13 07:47:00,SystemResetWarning,0821.8,5.00,000.00,021.9,021.1,000.0,030.5,023.8,21.5,0000.0,0007.96,0003.67,0002.48
2024-03-13 07:48:00,SystemResetWarning,0821.8,5.00,000.00,021.9,021.1,000.0,030.5,023.8,21.5,0000.0,0008.36,0003.69,0002.46
2024-03-13 07:49:00,SystemResetWarning,0821.8,5.01,000.00,021.9,021.1,000.0,030.5,023.7,21.5,0000.0,0008.27,0003.65,0002.43
2024-03-13 07:50:00,SystemResetWarning,0821.8,5.00,000.00,021.9,021.1,000.0,030.5,023.7,21.4,0000.0,0008.08,0003.56,0002.42
2024-03-13 07:51:00,SystemResetWarning,0821.7,4.99,000.00,021.9,021.0,000.0,030.5,023.7,21.3,0000.0,0007.97,0003.54,0002.42
2024-03-13 07:52:00,SystemResetWarning,0821.7,5.00,000.00,021.9,021.0,000.0,030.5,023.7,21.4,0000.0,0007.94,0003.53,0002.41
2024-03-13 07:53:00,SystemResetWarning,0821.7,5.00,000.00,021.9,021.0,000.0,030.5,023.7,21.3,0000.0,0007.97,0003.53,0002.40
2024-03-13 07:54:00,SystemResetWarning,0821.7,5.01,000.00,021.8,020.9,000.0,030.5,023.7,21.3,0000.0,0008.15,0003.53,0002.38
2024-03-13 07:55:00,SystemResetWarning,0821.7,5.00,000.00,021.8,020.9,000.0,030.5,023.6,21.3,0000.0,0008.40,0003.56,0002.36
2024-03-13 07:56:00,SystemResetWarning,0821.7,5.01,000.00,021.8,020.9,000.0,030.5,023.6,21.4,0000.0,0008.51,0003.59,0002.35
2024-03-13 07:57:00,SystemResetWarning,0821.8,4.99,000.00,021.8,020.9,000.0,030.4,023.6,21.4,0000.0,0008.86,0003.60,0002.34
2024-03-13 07:58:00,SystemResetWarning,0821.8,4.99,000.00,021.8,020.8,000.0,030.4,023.6,21.4,0000.0,0008.93,0003.59,0002.32
2024-03-13 07:59:00,SystemResetWarning,0821.8,5.01,000.00,021.8,020.9,000.0,030.4,023.6,21.4,0000.0,0009.17,0003.56,0002.31
